"Pseudo-MPEC" for C131R72

Created 2019 Oct 18 19:07:04 UT using Find_Orb

Click here for an explanation of pseudo-MPECs

 
 Astrometry: 
     C131R72  C2019 10 02.49378 02 57 11.09 -03 37 13.4    ~A2Cb 20.7 GVNEOCPG96
     C131R72  C2019 10 02.49896 02 57 08.45 -03 37 15.2    ~A2Cb 20.7 GVNEOCPG96
     C131R72  C2019 10 02.50617 02 57 04.76 -03 37 17.7    ~A2Cb 20.9 GVNEOCPG96
     C131R72  C2019 10 02.51136 02 57 02.08 -03 37 19.3    ~A2Cb 20.9 GVNEOCPG96
     C131R72 KC2019 10 04dBB+1D5;k77sb%,jh!8AstrometryM-c*redacted;1%i2US.x85K96
     C131R72 KC2019 10 04c7J$(B;clickso$R!hereHu#`HdIR5for2-!g;/?explanation-K96

Station data:
(G96) Mt. Lemmon Survey  (N32.442754 W110.788720)  US/Arizona.  Observers T.
   A. Pruyne, B. M. Africano, E. J. Christensen, G. A. Farneth, D. C. Fuls,
   A. R. Gibbs, A. D. Grauer, H. Groeller, J. A. Johnson, R. A. Kowalski, S.
   M. Larson, G. J. Leonard, D. Rankin, R. L. Seaman, F. C. Shelly. 1.5-m
   reflector + 10K CCD.
(K96) Savelli Observatory  (N39.314406 E16.751190)  Italy.

Orbital elements:  C131R72
   Perihelion 2019 Dec 31.456995 +/- 1.58 TT = 10:58:04 (JD 2458848.956995)
Epoch 2019 Oct  4.0 TT = JDT 2458760.5   Earth MOID: 0.0019   Ve: 0.0857
M 240.86494067 +/- 1.2              (J2000 ecliptic)          AutoNEOCP
n   1.34681332 +/- 0.00991          Peri.  145.14735 +/- 0.12
a   0.81207806 +/- 0.00399          Node    13.14609 +/- 0.025
e   0.3622560 +/- 0.0135            Incl.    7.80425 +/- 0.41
P   0.73/267.29d           H 27.3   G  0.15   U  9.7  
q 0.51789786 +/- 0.0136    Q 1.10625826 +/- 0.00559
From 6 observations 2019 Oct. 2-4; mean residual 0".54
Residuals in arcseconds: 
191002 G96  .16-  .83+    191002 G96  .22+  .41-    191004 K96  .01-  .97+    
191002 G96  .16+  .32+    191002 G96  .22-  .76-    191004 K96  .03+  .96-    

Ephemerides (geocentric):
Date (UTC) HH   RA              Dec         delta   r     elong  mag " sig PA
---- -- -- --  -------------   -----------  ------ ------ -----  --- ---- ---
2019 10 18 19  15 43 31.061   +02 58 07.29  .05994 .94788  35.1 28??  212  94
2019 10 18 20  15 43 26.604   +02 58 04.98  .06016 .94766  35.0 28??  212  94
2019 10 18 21  15 43 22.170   +02 58 02.61  .06038 .94744  35.0 28??  212  94
2019 10 18 22  15 43 17.759   +02 58 00.21  .06061 .94722  34.9 28??  213  94
2019 10 18 23  15 43 13.369   +02 57 57.75  .06083 .94700  34.9 28??  213  94
2019 10 19 00  15 43 09.002   +02 57 55.24  .06105 .94678  34.8 28??  213  94
2019 10 19 01  15 43 04.657   +02 57 52.69  .06127 .94656  34.8 28??  213  94
2019 10 19 02  15 43 00.334   +02 57 50.09  .06150 .94633  34.7 28??  214  94
2019 10 19 03  15 42 56.031   +02 57 47.45  .06172 .94611  34.7 28??  214  94
2019 10 19 04  15 42 51.750   +02 57 44.75  .06194 .94589  34.7 28??  214  94
2019 10 19 05  15 42 47.490   +02 57 42.01  .06217 .94567  34.6 28??  214  94
2019 10 19 06  15 42 43.250   +02 57 39.22  .06239 .94545  34.6 28??  214  94
2019 10 19 07  15 42 39.031   +02 57 36.39  .06261 .94523  34.5 28??  215  94
2019 10 19 08  15 42 34.832   +02 57 33.51  .06283 .94501  34.5 28??  215  94
2019 10 19 09  15 42 30.653   +02 57 30.58  .06306 .94479  34.4 28??  215  94
2019 10 19 10  15 42 26.493   +02 57 27.61  .06328 .94456  34.4 28??  215  94
2019 10 19 11  15 42 22.353   +02 57 24.59  .06350 .94434  34.3 28??  215  94
2019 10 19 12  15 42 18.232   +02 57 21.52  .06373 .94412  34.3 28??  216  94
2019 10 19 13  15 42 14.130   +02 57 18.41  .06395 .94390  34.2 28??  216  94
2019 10 19 14  15 42 10.047   +02 57 15.26  .06417 .94368  34.2 28??  216  94
2019 10 19 15  15 42 05.982   +02 57 12.05  .06440 .94345  34.1 28??  216  94
2019 10 19 16  15 42 01.936   +02 57 08.80  .06462 .94323  34.1 28??  216  94
2019 10 19 17  15 41 57.908   +02 57 05.51  .06485 .94301  34.0 28??  216  94
2019 10 19 18  15 41 53.898   +02 57 02.17  .06507 .94278  34.0 28??  217  94
2019 10 19 19  15 41 49.905   +02 56 58.79  .06529 .94256  33.9 28??  217  94
2019 10 19 20  15 41 45.931   +02 56 55.36  .06552 .94234  33.9 28??  217  94
2019 10 19 21  15 41 41.973   +02 56 51.89  .06574 .94211  33.9 28??  217  94
2019 10 19 22  15 41 38.033   +02 56 48.37  .06596 .94189  33.8 28??  217  94
2019 10 19 23  15 41 34.109   +02 56 44.80  .06619 .94167  33.8 28??  217  94
2019 10 20 00  15 41 30.203   +02 56 41.19  .06641 .94144  33.7 28??  218  94
2019 10 20 01  15 41 26.313   +02 56 37.54  .06664 .94122  33.7 28??  218  94
2019 10 20 02  15 41 22.439   +02 56 33.84  .06686 .94100  33.6 28??  218  94
2019 10 20 03  15 41 18.582   +02 56 30.10  .06708 .94077  33.6 28??  218  94
2019 10 20 04  15 41 14.740   +02 56 26.32  .06731 .94055  33.5 28??  218  94
2019 10 20 05  15 41 10.915   +02 56 22.49  .06753 .94032  33.5 28??  218  94
2019 10 20 06  15 41 07.105   +02 56 18.61  .06776 .94010  33.4 28??  219  94
2019 10 20 07  15 41 03.310   +02 56 14.69  .06798 .93987  33.4 28??  219  94
2019 10 20 08  15 40 59.531   +02 56 10.73  .06820 .93965  33.3 28??  219  94
2019 10 20 09  15 40 55.767   +02 56 06.72  .06843 .93942  33.3 28??  219  94
2019 10 20 10  15 40 52.019   +02 56 02.67  .06865 .93920  33.3 28??  219  94
2019 10 20 11  15 40 48.285   +02 55 58.58  .06888 .93897  33.2 28??  219  94
2019 10 20 12  15 40 44.565   +02 55 54.44  .06910 .93875  33.2 28??  219  94
2019 10 20 13  15 40 40.861   +02 55 50.26  .06933 .93852  33.1 28??  220  94
2019 10 20 14  15 40 37.170   +02 55 46.04  .06955 .93830  33.1 28??  220  94
2019 10 20 15  15 40 33.494   +02 55 41.77  .06977 .93807  33.0 28??  220  94
2019 10 20 16  15 40 29.832   +02 55 37.46  .07000 .93784  33.0 28??  220  94
2019 10 20 17  15 40 26.184   +02 55 33.10  .07022 .93762  32.9 28??  220  94
2019 10 20 18  15 40 22.549   +02 55 28.70  .07045 .93739  32.9 28??  220  94